CONSULTA PERSONALIZADA Alfaro
      Predicción AEMET      
Valores extremos - medios de hoy
Fecha T (C) P (l/m2) Hr (%) Rs (W/m2) VV (km/h) DV Tint.(C)
Max Med Min Acu Med Med Max Med Max Med Min
 24-03-2019   22,7   13,4   7,3   0,0   42   330   33,5   282   28,8   25,2   22,6 
Datos de hoy
Fecha T (C) P (l/m2) Hr (%) Rs (W/m2) VV (km/h) DV Tint.(C)
Max Med Min Acu Med Med Max Med Max Med Min
 24-03-2019 16:30:00   22,2   21,8   21,5   0,0   20   561   33,5   10   27,1   26,7   26,4 
 24-03-2019 16:15:00   22,5   22,1   21,8   0,0   19   614   33,1   8   27,2   26,7   26,5 
 24-03-2019 16:00:00   22,7   22,2   21,9   0,0   20   652   30,2   353   26,9   26,7   26,2 
 24-03-2019 15:45:00   22,7   22,2   21,9   0,0   21   687   29,5   9   26,8   26,4   26,1 
 24-03-2019 15:30:00   22,6   22,2   21,8   0,0   20   722   20,2   347   26,6   26,4   26,3 
 24-03-2019 15:15:00   22,4   21,8   21,5   0,0   20   748   19,4   345   26,5   26,2   26,0 
 24-03-2019 15:00:00   22,2   21,8   21,3   0,0   19   779   22,3   358   26,2   25,8   25,7 
 24-03-2019 14:45:00   21,8   21,4   21,0   0,0   20   800   23,8   355   25,8   25,4   25,0 
 24-03-2019 14:30:00   21,9   21,1   20,7   0,0   26   807   23,8   14   25,4   25,1   24,9 
 24-03-2019 14:15:00   21,8   21,1   20,6   0,0   27   827   17,6   329   25,4   25,2   25,0 
 24-03-2019 14:00:00   21,1   20,7   20,2   0,0   29   826   14,4   343   25,2   24,9   24,6 
 24-03-2019 13:45:00   20,7   20,3   19,9   0,0   30   839   15,8   327   24,9   24,7   24,5 
 24-03-2019 13:30:00   20,4   19,9   19,4   0,0   31   844   17,3   325   24,5   24,4   24,2 
 24-03-2019 13:15:00   19,9   19,4   18,9   0,0   32   845   18,0   314   24,4   24,2   24,0 
 24-03-2019 13:00:00   19,5   19,0   18,6   0,0   33   840   14,4   326   24,2   24,0   23,7 
 24-03-2019 12:45:00   19,3   18,6   18,2   0,0   33   833   13,7   338   23,9   23,8   23,6 
 24-03-2019 12:30:00   18,4   17,9   17,7   0,0   34   823   14,0   336   23,8   23,5   23,2 
 24-03-2019 12:15:00   18,1   17,6   17,0   0,0   35   809   18,7   345   23,6   23,4   23,2 
 24-03-2019 12:00:00   17,4   16,9   16,5   0,0   37   790   13,3   329   23,5   23,3   23,1 
 24-03-2019 11:45:00   16,6   16,3   15,6   0,0   39   772   15,5   322   23,5   23,3   23,1 
 24-03-2019 11:30:00   15,9   15,5   15,1   0,0   40   738   15,1   318   23,4   23,2   22,9 
 24-03-2019 11:15:00   15,1   14,7   14,4   0,0   41   715   14,4   325   23,2   23,0   22,8 
 24-03-2019 11:00:00   14,5   14,0   13,6   0,0   43   620   16,2   318   23,2   23,0   22,8 
 24-03-2019 10:45:00   13,6   13,2   12,7   0,0   44   575   14,8   320   23,2   23,0   22,8 
 24-03-2019 10:30:00   12,7   12,3   11,9   0,0   47   593   11,2   335   23,0   22,9   22,7 
 24-03-2019 10:15:00   12,1   11,7   11,3   0,0   48   554   9,4   338   23,1   22,8   22,6 
 24-03-2019 10:00:00   11,4   10,8   10,4   0,0   52   506   10,4   332   23,0   22,8   22,7 
 24-03-2019 09:45:00   10,4   10,0   9,8   0,0   54   462   11,2   323   23,1   22,9   22,7 
 24-03-2019 09:30:00   9,9   9,7   9,3   0,0   55   413   8,6   321   23,1   22,9   22,8 
 24-03-2019 09:15:00   9,3   9,1   8,9   0,0   56   362   10,4   317   23,2   23,0   22,8 
 24-03-2019 09:00:00   9,0   8,8   8,5   0,0   57   305   9,0   321   23,3   23,2   22,9 
 24-03-2019 08:45:00   8,6   8,3   8,1   0,0   58   255   10,4   305   23,3   23,2   23,0 
 24-03-2019 08:30:00   8,3   8,0   7,7   0,0   58   208   14,0   293   23,4   23,1   23,0 
 24-03-2019 08:15:00   7,8   7,5   7,4   0,0   59   163   15,1   276   23,5   23,3   23,0 
 24-03-2019 08:00:00   7,6   7,4   7,3   0,0   59   100   12,6   283   23,8   23,6   23,4 
 24-03-2019 07:45:00   7,9   7,6   7,4   0,0   58   60   13,0   287   24,0   23,8   23,5 
 24-03-2019 07:30:00   8,3   8,1   7,8   0,0   56   26   11,9   288   24,1   23,9   23,7 
 24-03-2019 07:15:00   8,4   8,1   7,8   0,0   57   6   12,2   286   24,2   24,0   23,8 
 24-03-2019 07:00:00   8,0   7,9   7,7   0,0   58   0   11,9   283   24,4   24,2   24,0 
 24-03-2019 06:45:00   7,9   7,7   7,5   0,0   59   0   12,2   287   24,5   24,4   24,2 
 24-03-2019 06:30:00   7,8   7,6   7,5   0,0   60   0   11,2   269   24,7   24,5   24,3 
 24-03-2019 06:15:00   9,6   8,7   7,7   0,0   56   0   9,0   269   24,9   24,7   24,5 
 24-03-2019 06:00:00   9,7   9,0   7,9   0,0   55   0   7,6   259   25,1   24,9   24,7 
 24-03-2019 05:45:00   8,6   8,3   8,0   0,0   57   0   6,5   237   25,4   25,1   24,9 
 24-03-2019 05:30:00   8,7   8,3   8,1   0,0   57   0   4,7   287   25,5   25,3   25,1 
 24-03-2019 05:15:00   9,0   8,6   8,3   0,0   54   0   6,8   321   25,6   25,4   25,2 
 24-03-2019 05:00:00   9,3   9,2   9,0   0,0   52   0   10,1   295   25,6   25,4   25,2 
 24-03-2019 04:45:00   9,5   9,4   9,1   0,0   51   0   10,4   273   25,8   25,5   25,4 
 24-03-2019 04:30:00   9,7   9,6   9,4   0,0   50   0   12,2   273   26,0   25,7   25,5 
 24-03-2019 04:15:00   9,8   9,7   9,5   0,0   50   0   12,6   282   26,2   26,0   25,7 
 24-03-2019 04:00:00   10,0   9,8   9,6   0,0   50   0   12,6   290   26,4   26,2   25,9 
 24-03-2019 03:45:00   9,9   9,7   9,6   0,0   50   0   11,9   298   26,6   26,4   26,2 
 24-03-2019 03:30:00   10,6   10,1   9,7   0,0   49   0   12,2   295   26,8   26,6   26,4 
 24-03-2019 03:15:00   10,8   10,6   10,4   0,0   46   0   9,7   289   26,9   26,7   26,5 
 24-03-2019 03:00:00   10,9   10,7   10,4   0,0   46   0   8,3   285   27,0   26,8   26,6 
 24-03-2019 02:45:00   11,1   10,8   10,6   0,0   45   0   11,5   277   27,1   26,9   26,7 
 24-03-2019 02:30:00   11,4   11,2   10,9   0,0   44   0   9,7   267   27,4   27,2   27,0 
 24-03-2019 02:15:00   12,1   11,8   11,4   0,0   42   0   8,6   273   27,6   27,4   27,1 
 24-03-2019 02:00:00   12,6   12,2   12,0   0,0   40   0   7,6   291   27,8   27,5   27,3 
 24-03-2019 01:45:00   12,7   12,6   12,4   0,0   38   0   6,1   293   27,9   27,7   27,4 
 24-03-2019 01:30:00   13,6   13,3   12,6   0,0   35   0   7,2   257   28,0   27,9   27,7 
 24-03-2019 01:15:00   14,3   13,5   12,9   0,0   34   0   6,8   227   28,3   28,0   27,8 
 24-03-2019 01:00:00   15,0   14,3   13,6   0,0   32   0   7,9   250   28,4   28,1   27,9 
 24-03-2019 00:45:00   14,5   14,3   13,9   0,0   32   0   9,4   234   28,4   28,2   28,0 
 24-03-2019 00:30:00   14,2   14,0   13,8   0,0   33   0   9,4   240   28,6   28,3   28,2 
 24-03-2019 00:15:00   14,3   13,9   13,5   0,0   34   0   10,1   243   28,7   28,5   28,3 
 24-03-2019 00:00:00   14,2   13,8   13,3   0,0   35   0   10,8   233   28,8   28,6   28,3 
Datos diarios
Fecha desde Fecha hasta       Visualizar         Exportar Excel  
     
Alfaro - Fecha desde: 17-03-2019 - Fecha hasta: 23-03-2019
Fecha T (C) P (l/m2) Hr (%) Rs (W/m2) VV (km/h) DV Tint.(C)
Max Med Min Acu Med Med Max Med Max Med Min
 23-03-2019   22,2   13,6   5,5   0,0   43   259   15,8   203   29,9   25,2   21,0 
 22-03-2019   18,7   11,3   2,6   0,0   45   260   24,5   186   27,9   23,4   19,6 
 21-03-2019   16,0   9,3   3,1   0,0   50   264   25,6   240   26,0   20,5   16,4 
 20-03-2019   13,8   8,9   5,3   0,0   54   265   44,3   320   21,2   18,0   15,1 
 19-03-2019   12,0   8,5   6,4   0,0   65   178   46,8   314   19,3   17,7   15,5 
 18-03-2019   12,8   8,2   4,8   0,0   61   166   46,8   303   20,6   17,9   15,8 
 17-03-2019   15,5   10,7   6,0   0,0   59   166   56,9   321   27,5   22,6   19,7 
Datos mensuales
        Exportar      
   
Alfaro
Fecha T (C) P (l/m2) Hr (%) Rs (W/m2) VV (km/h) DV Tint.(C)
Max Med Min Acu Med Med Max Med Max Med Min
 Marzo -2019   23,0   11,0   2,6   0,0   57   201   102,2   244   29,9   21,4   15,1 
 Febrero -2019   21,9   9,0   0,7   7,4   66   153   77,8   223   28,0   19,6   9,0 
 Enero -2019   15,8   6,7   -1,5   11,3   70   85   70,2   281   21,9   15,3   10,1 
 Diciembre -2018   16,1   8,5   0,5   7,5   78   74   55,1   241   23,5   18,1   11,4 
 Noviembre -2018   20,3   10,8   0,9   33,4   78   80   52,9   193   26,3   18,5   9,5 
 Octubre -2018   26,8   15,1   3,2   23,0   67   142   68,0   252   27,6   19,0   6,9 
 Septiembre-2018   32,4   21,2   10,9   27,8   63   236   51,5   226   33,9   27,1   18,7 
 Agosto -2018   36,5   23,4   13,1   0,9   58   293   52,6   242   38,8   29,5   21,3 
 Julio -2018   35,7   23,7   14,9   6,2   60   330   70,9   247   37,6   30,0   22,6 
 Junio -2018   33,5   20,2   11,3   32,9   63   300   69,1   236   36,1   25,2   16,4 
 Mayo -2018   26,2   15,4   4,5   37,3   67   280   59,8   245   28,7   20,2   11,3 
 Abril -2018   25,2   13,2   2,2   107,6   68   223   65,2   192   27,5   17,5   7,0 
PARÁMETROS
Desc. Abr. Descripción
T Temperatura del aire
P Precipitación acumulada
Hr Humedad relativa del aire
Rs Radiación solar
VV Velocidad del viento
DV Dirección del viento
Tint Temperatura interior
 
FUNCIONES
Desc. Abr. Descripción
Max Máxima
Med Media
Min Mínima
Acu Acumulado